Location: Case Arfel
(44.2500°N, 7.7833°E)
Time: 00:04:20
(UTC+00:00)

Daily predictions for brighter satellites

Satellite Brightness Start Highest point End
(mag) Time Altitude Azimuth Time Altitude Azimuth Time Altitude Azimuth
ACS3 Solar Sail 4.0 02:01:56 10° NNE 02:03:45 18° NE 02:03:45 18° NE
ADEOS Rocket 4.2 02:34:36 10° NNE 02:38:45 41° NE 02:38:45 41° NE
Cosmos 2219 Rocket 3.7 02:55:06 32° NE 02:55:06 32° NE 02:58:05 10° NNE
BREEZE-M DEB (TANK) 4.5 02:53:28 73° NNW 02:54:22 81° NNE 03:20:26 10° ESE
USA 267 3.2 03:14:13 10° NE 03:20:18 69° N 03:20:18 69° N
H-2A R/B 4.5 03:28:00 10° N 03:28:05 10° N 03:28:05 10° N
Cosmos 2278 Rocket 3.9 03:29:48 12° N 03:34:15 29° NE 03:39:06 10° ESE
Cosmos 2333 Rocket 3.9 03:39:30 20° N 03:39:30 20° N 03:41:39 10° N
Cosmos 921 Rocket 4.2 03:40:14 38° SE 03:40:14 38° SE 03:43:06 10° SSE
COSMOS 2455 4.0 03:45:06 30° NNW 03:45:06 30° NNW 03:48:53 10° NNE
Cosmos 1153 Rocket 4.3 03:41:08 10° N 03:47:20 82° W 03:53:34 10° S
Cosmos 1939 Rocket 3.7 03:44:47 10° NNE 03:48:30 45° E 03:48:49 44° ESE
ACS3 Solar Sail 2.8 03:44:38 10° N 03:47:53 30° NNW 03:47:53 30° NNW
BlueWalker 3 3.1 03:53:51 38° ENE 03:53:51 38° ENE 03:56:28 10° ESE
USA 234 3.1 03:50:06 10° SE 03:56:40 79° SW 03:58:53 45° WNW
Cosmos 2360 Rocket 3.6 03:59:09 23° NNW 03:59:09 23° NNW 04:01:57 10° N
Cosmos 2322 Rocket 3.8 03:59:31 20° NNW 03:59:31 20° NNW 04:02:03 10° N
Gbstr 26 Del rocket 3.2 03:59:16 73° SW 03:59:46 87° SE 04:05:31 10° ENE
SL-16 R/B 4.2 04:06:02 13° NNW 04:06:02 13° NNW 04:07:10 10° N
Cosmos 44 Rocket 3.6 04:05:02 36° NNW 04:07:07 71° NE 04:12:16 10° SE
Meteor 2-14 Rocket 4.3 04:04:30 10° SSW 04:10:34 69° W 04:16:40 10° N
Cosmos 1943 Rocket 2.8 04:06:17 11° NNW 04:11:27 53° ENE 04:16:48 10° SE
NOSS 2-1 (C) 3.9 04:14:58 37° NNE 04:14:58 37° NNE 04:16:57 10° NNE
ARGOS 3.4 04:10:56 10° N 04:16:05 45° WNW 04:16:18 45° WNW
PAYLOAD A 4.1 04:11:39 10° N 04:16:58 59° WNW 04:20:30 21° SW
Cosmos 1908 Rocket 3.8 04:13:11 10° N 04:17:38 71° E 04:22:01 10° SSE
NOSS 2-1 (D) 4.0 04:19:05 33° NNE 04:19:05 33° NNE 04:20:57 10° NNE
Cosmos 1140 Rocket 3.3 04:15:56 20° NNW 04:19:35 87° WSW 04:24:41 10° SSE
CZ-2C R/B 2.7 04:16:42 10° N 04:21:26 43° WNW 04:21:33 43° WNW
Timation 2 Rocket 4.1 04:14:49 10° NNW 04:21:31 82° ENE 04:27:54 10° SSE
Cosmos 1809 Rocket 4.5 04:16:38 10° SSW 04:22:33 53° WNW 04:28:31 10° N
ADEOS Rocket 4.2 04:20:59 10° N 04:25:40 26° NW 04:25:40 26° NW
NOSS 3-1 (C) 3.0 04:27:25 40° W 04:28:47 54° NW 04:34:19 10° NNE
Iridium 4 Rocket 3.2 04:28:35 10° N 04:32:55 71° E 04:37:03 10° S
Cosmos 2100 Rocket 4.0 04:27:25 10° NNW 04:33:25 57° W 04:39:25 10° S
SJ 16-02 3.9 04:30:27 10° NNE 04:33:27 18° ENE 04:36:25 10° ESE
Orbus 7S? 4.2 04:27:27 10° SW 04:34:41 66° SE 04:38:08 10° NE
Cosmos 2219 Rocket 3.3 04:36:50 24° NW 04:36:52 24° NW 04:41:26 10° N
IRS-1D 3.3 04:36:35 10° NNE 04:41:34 84° WNW 04:46:29 10° SSW
NOSS 0 Rocket 3.8 04:36:42 10° SSW 04:42:50 82° WNW 04:49:02 10° NNE
TIMED 4.3 04:40:18 17° NNW 04:43:32 70° WSW 04:47:44 10° S
BREEZE-M DEB (TANK) 4.5 04:43:37 10° S 04:45:06 14° SE 04:46:52 10° E
COSMOS 2428 2.9 04:41:30 13° SW 04:46:22 49° WNW 04:51:55 10° NNE
USA 59 Rocket 0.6 04:50:47 23° NNW 04:50:47 23° NNW 04:52:47 10° NNE
Cosmos 2322 4.2 04:50:01 17° WSW 04:53:56 38° NW 04:59:13 10° NNE
Cosmos 1459 Rocket 4.3 04:48:35 10° NNW 04:54:34 44° W 05:00:30 10° SSW
COSMO-SKYMED 1 2.4 04:53:17 10° SSE 04:57:25 89° W 05:01:33 10° NNW
FengYun 1-2 T 4.4 04:52:42 10° N 04:58:03 50° WNW 05:03:25 10° SW
SKYMED 2 3.5 04:54:26 10° S 04:58:43 62° W 05:03:02 10° NNW
Cosmos 407 Rocket 3.4 04:56:25 10° NNW 05:01:31 73° WSW 05:06:35 10° SSE
USA 267 4.1 04:57:23 10° NE 05:03:09 34° NNW 05:07:39 16° WNW
Cosmos 1484 Rocket 3.2 05:00:36 10° NNE 05:04:08 58° E 05:07:36 10° S
Cosmos 1725 Rocket 4.1 04:58:57 10° NNW 05:05:05 54° W 05:11:11 10° SSW
Cosmos 1980 3.6 05:00:25 10° SSW 05:06:03 73° WNW 05:11:44 10° NNE
Cosmos 1802 Rocket 4.4 05:06:58 10° NNW 05:12:54 42° W 05:18:43 10° SSW
NOSS 3-1 (A) 3.0 05:08:17 10° SW 05:12:54 59° NW 05:18:29 10° NNE
Cosmos 2233 Rocket 4.0 05:10:06 10° NNW 05:16:21 65° W 05:22:31 10° S
Cosmos 1703 Rocket 4.3 05:12:49 10° SW 05:16:36 29° WNW 05:20:26 10° NNW
Cosmos 2278 Rocket 2.4 05:13:07 10° NW 05:18:33 49° WSW 05:23:57 10° S
NOSS 2-1 (E) 4.4 05:18:52 16° WNW 05:20:08 19° NW 05:22:26 10° N
Cosmos 2251 Rocket 3.6 05:15:01 10° NNW 05:20:25 90° WSW 05:25:46 10° SSE
Cosmos 1939 Rocket 4.4 05:19:51 10° NNW 05:22:05 15° WNW 05:23:42 12° W
CZ-3 R/B 3.7 05:15:04 10° SW 05:22:19 20° S 05:26:21 10° SE
Cosmos 2237 Rocket 2.2 05:16:47 10° SW 05:22:22 59° WNW 05:27:59 10° NNE
USA-17 4.2 05:22:16 10° NW 05:25:23 89° SW 05:28:53 10° SE
Cosmos 2292 Rocket 4.3 05:23:16 10° SW 05:27:07 35° WNW 05:31:57 10° N
IGS 5A 3.7 05:23:07 10° NNE 05:27:08 70° E 05:31:07 10° S
BlueWalker 3 3.0 05:27:40 12° W 05:30:23 27° SW 05:33:27 10° SSE
USA 276 3.6 05:29:39 11° W 05:31:24 19° SW 05:33:29 10° S
Helios 1A Rocket 3.7 05:29:21 10° SSW 05:32:01 21° W 05:34:41 10° NW
Cosmos 2242 Rocket 3.5 05:28:37 10° S 05:32:59 86° W 05:37:24 10° N
ATLAS 3B R/B 4.4 05:26:10 10° S 05:33:03 43° ESE 05:40:19 10° NE
Cosmos 2369 Rocket 3.7 05:31:09 10° N 05:36:21 35° NE 05:41:32 10° ESE
Cosmos 1624 Rocket 4.1 05:33:28 10° SSW 05:38:38 86° ESE 05:43:51 10° NNE
Cosmos 1782 Rocket 4.3 05:35:28 10° NNW 05:39:19 30° W 05:43:07 10° SSW
Cosmos 1420 Rocket 4.2 05:39:20 10° SW 05:44:26 51° WNW 05:49:37 10° NNE
Cosmos 1674 Rocket 4.4 05:41:37 10° S 05:45:57 58° E 05:50:18 10° NNE
Gbstr 26 Del rocket 4.3 05:41:51 10° W 05:46:50 43° N 05:52:54 10° ENE
CENTAUR R/B 4.1 05:42:09 10° NNW 05:50:03 50° NE 05:59:03 10° ESE
